Location: Beuvrequen
(50.8014°N, 1.6652°E)
Time: 02:31:18
(UTC+00:00)

Cosmos 2227 - Pass Details

Date: 16 October 2021
Orbit: 833 x 863 km, 71.0° (Epoch: 28 November)

Event Time Altitude Azimuth Distance (km) Brightness Sun altitude
Rises 18:43:16 0° 330° (NNW) 3,450 7.9 -17.3°
Reaches altitude 10° 18:45:44 10° 332° (NNW) 2,512 7.1 -17.7°
Maximum altitude 18:51:32 78° 59° (ENE) 887 4.2 -18.6°
Enters shadow 18:55:19 22° 144° (SE) 1,776 5.5 -19.2°
